GFSNW_sfc_dewp_057.txt.gz
Dewpoint
54 54 54 53 51 50 47 45 39 37 38 37 37 31 28 32 26 27 26 27 26 27 26 24 23 23 24 23 23 22 23 19 16 14 14 14 14 16 17 17 19 26 28 27
54 54 53 53 52 52 47 44 40 36 36 31 31 30 26 26 25 27 26 25 26 27 27 27 28 27 27 27 24 29 24 22 18 14 11 15 16 13 9 9 7 7 13 22
54 54 54 53 52 52 48 45 37 37 35 32 31 31 29 28 28 28 27 28 30 29 27 27 28 27 27 31 29 36 30 21 21 19 20 21 19 18 17 13 5 7 10 14
54 54 54 53 52 51 49 45 33 37 32 32 32 30 29 26 27 28 29 30 27 27 26 26 26 27 29 30 35 32 27 22 23 21 20 19 19 18 17 16 15 13 10 13
54 54 54 54 52 50 47 40 40 39 34 35 31 33 31 28 30 32 28 30 30 30 28 29 28 27 27 28 29 30 30 27 23 22 21 21 20 21 21 20 16 14 14 11
54 54 54 54 52 50 44 45 45 42 36 32 30 32 32 30 33 32 31 33 35 32 31 32 30 30 28 27 27 31 33 33 31 25 25 25 23 20 21 21 21 15 13 16
54 54 54 54 53 52 50 47 46 41 32 32 33 32 31 32 34 35 31 35 34 35 36 34 33 32 30 28 27 25 28 34 36 28 28 23 27 27 26 24 23 24 22 18
53 54 54 54 54 52 50 49 46 44 37 34 33 33 34 34 36 36 33 34 37 37 34 34 32 31 33 34 33 32 30 29 30 26 27 25 25 24 23 25 26 28 27 28
53 54 54 54 54 53 51 50 52 47 43 36 36 36 36 34 35 35 37 39 38 36 34 36 31 30 32 30 30 31 33 36 36 33 25 21 22 24 23 26 22 26 35 36
52 53 53 54 54 54 51 51 54 50 46 40 40 37 38 39 37 38 38 39 38 37 36 33 31 31 36 29 30 31 32 33 31 33 32 33 35 36 35 29 29 39 38 38
52 53 53 54 54 54 51 52 54 50 46 42 39 37 41 40 40 39 39 39 39 36 34 34 33 32 34 33 34 33 31 31 32 33 31 27 36 36 35 37 38 39 39 39
51 52 53 54 54 54 52 50 54 54 48 44 45 44 42 44 42 41 39 41 39 39 37 37 37 34 35 34 29 36 30 36 32 33 33 36 38 38 39 39 38 38 39 39
52 52 53 54 54 54 52 49 51 50 47 44 44 42 43 40 40 40 39 41 42 42 44 39 38 34 37 31 33 36 36 38 35 33 36 36 39 39 40 40 40 40 40 41
51 52 53 54 54 54 53 49 50 51 49 44 44 42 43 42 39 39 41 40 42 46 44 41 37 35 39 35 36 35 38 38 36 35 37 39 38 39 40 40 40 41 43 41
50 52 52 54 54 54 52 50 51 52 50 44 43 44 42 41 41 41 41 42 44 46 43 41 40 37 38 38 38 35 38 37 34 33 38 38 38 41 41 40 40 41 43 45
50 51 52 54 54 54 50 49 54 52 52 47 41 44 45 48 43 43 45 45 44 41 41 43 40 39 38 37 36 39 41 42 42 39 41 42 42 42 42 41 41 41 43 44
50 50 52 53 53 50 48 48 51 51 54 48 44 41 51 50 48 46 45 45 44 43 43 41 43 38 39 38 34 39 40 41 43 43 42 40 41 41 42 42 41 42 42 43
50 50 52 53 53 51 48 50 51 52 49 48 43 41 48 48 48 48 47 42 43 44 41 41 37 41 39 36 38 39 39 39 39 39 42 42 43 43 42 42 42 40 41 41
50 50 52 51 49 48 51 55 52 54 50 46 47 45 41 46 46 48 45 44 42 46 43 42 42 41 33 36 38 39 38 36 36 39 39 39 41 41 42 41 40 39 39 40
49 50 48 48 51 54 53 48 47 47 46 47 45 47 45 47 49 47 46 45 41 41 43 44 41 36 42 43 42 42 41 39 38 36 36 37 38 39 40 41 41 41 40 40
50 51 52 52 54 51 50 47 46 48 46 49 49 49 47 52 46 46 48 44 44 38 40 40 38 37 43 45 43 43 43 41 39 39 39 40 40 39 38 39 41 42 42 42
51 49 50 52 50 49 46 47 47 47 45 48 47 46 48 51 52 45 44 42 43 36 43 40 35 41 44 43 42 42 42 41 40 44 42 41 42 40 40 40 39 40 43 43
51 51 50 49 49 44 41 40 42 44 49 48 45 43 52 52 48 44 44 40 38 44 37 34 40 45 45 43 43 42 42 42 45 45 43 44 43 42 40 40 41 41 40 41
49 49 39 45 44 44 44 46 48 49 47 47 49 48 49 47 45 44 37 41 43 36 34 36 43 43 44 43 43 42 42 42 43 43 43 42 41 41 42 41 40 40 40 41
49 47 39 41 44 49 48 48 50 51 48 48 49 46 45 41 40 39 36 33 33 37 37 41 45 45 44 43 41 39 42 42 42 43 42 40 41 39 41 41 40 40 41 42
48 46 41 43 45 47 49 48 46 46 46 52 47 42 39 38 38 35 34 33 33 38 43 46 47 45 44 43 44 41 42 41 42 41 39 40 38 38 41 41 40 40 43 43
44 42 44 45 47 49 51 51 48 48 42 41 40 38 38 41 37 36 37 38 41 41 44 46 47 46 45 43 44 43 42 43 42 40 43 40 41 38 36 39 41 41 43 43

GFSNW_sfc_dewp_060.txt.gz
Dewpoint
54 54 54 53 52 51 47 45 34 35 37 33 34 26 25 31 27 28 26 26 26 26 26 25 25 26 27 28 26 26 23 19 17 15 18 17 14 18 16 17 16 22 26 24
54 54 54 53 52 51 45 43 43 36 33 28 29 29 28 27 28 28 27 28 28 28 26 24 27 28 31 30 29 28 24 21 18 13 16 22 20 20 19 15 10 7 8 12
55 54 53 53 52 51 46 43 31 34 33 32 29 28 26 27 29 29 28 27 27 26 25 26 26 26 28 29 33 41 29 21 20 18 20 21 19 20 21 16 11 11 11 12
55 54 54 53 52 51 46 40 32 33 30 31 30 30 29 30 29 31 32 31 30 27 24 26 27 28 27 28 36 31 26 20 22 21 21 21 21 20 21 21 20 15 14 14
54 55 54 53 52 51 41 37 36 37 31 31 30 32 30 30 31 32 31 32 32 31 29 30 29 28 27 26 27 29 32 28 29 26 25 25 24 25 24 21 21 21 20 15
54 55 54 54 52 50 44 44 43 35 34 32 31 31 31 32 33 32 34 35 33 32 33 34 33 31 30 28 28 25 30 30 28 24 27 26 22 23 24 23 24 23 21 23
54 55 55 54 53 51 48 45 44 37 31 32 32 33 34 34 33 33 33 35 34 34 35 35 34 33 32 31 30 26 28 31 30 27 28 21 22 27 26 24 25 27 27 31
54 55 55 55 54 52 48 48 46 42 33 34 34 34 34 34 34 34 36 35 36 36 34 31 30 31 29 32 32 32 32 30 27 27 23 25 25 29 31 30 26 38 37 37
53 55 55 55 54 53 49 50 50 46 39 34 37 35 35 33 33 35 36 38 36 36 35 32 26 26 30 28 31 32 33 34 31 31 25 22 31 33 35 35 23 37 38 37
53 54 54 55 55 53 49 49 49 48 43 38 37 35 35 37 36 35 36 37 36 37 31 31 29 30 34 22 27 29 29 30 28 31 29 32 32 35 38 26 27 37 37 37
52 53 54 55 55 54 50 48 51 46 43 44 40 38 39 39 37 35 36 35 36 35 29 31 31 30 32 30 32 30 30 28 29 29 28 26 35 34 32 35 37 37 36 37
52 52 54 55 54 54 52 47 50 50 46 43 44 45 42 38 38 38 38 35 36 37 34 34 30 32 33 32 26 37 28 31 28 32 28 35 37 37 39 39 37 37 36 37
52 52 53 54 54 54 53 47 48 50 46 44 43 43 42 40 39 40 39 40 40 39 40 36 35 31 33 29 31 33 36 35 33 33 33 34 37 40 40 39 39 37 37 39
50 52 53 54 54 54 53 47 49 49 46 41 43 44 40 40 40 39 38 39 44 43 41 36 35 33 35 28 32 34 34 36 34 34 36 37 38 39 41 41 41 39 39 41
50 51 53 53 54 53 52 49 49 50 48 42 43 45 45 44 38 38 39 44 44 42 40 38 36 37 35 35 37 34 38 35 34 30 34 36 37 40 41 41 39 41 40 41
50 50 52 53 54 53 49 47 52 51 51 47 40 44 43 41 39 39 39 40 42 43 41 39 42 39 35 32 34 35 37 39 38 36 39 39 41 42 43 41 40 41 41 41
50 50 51 52 53 48 46 46 50 50 50 47 43 42 46 48 47 45 43 46 44 40 39 39 39 37 37 33 28 35 39 39 41 41 40 39 40 39 42 42 42 42 41 41
49 50 50 52 52 50 46 48 49 50 48 48 43 41 44 47 45 45 49 46 44 41 41 40 38 38 36 29 35 37 40 39 39 40 42 41 41 42 42 43 43 40 39 40
50 50 51 50 47 45 49 54 53 51 48 44 45 40 39 50 50 49 49 48 42 47 43 40 40 34 28 32 35 37 38 37 37 38 39 39 40 41 41 42 41 40 40 41
50 49 48 46 50 55 52 47 44 45 45 45 40 45 41 45 46 43 46 47 43 39 43 44 37 34 36 37 39 39 39 37 36 35 34 35 36 37 38 39 42 41 42 41
47 47 48 52 55 49 47 44 45 46 44 44 44 44 42 47 40 40 45 42 41 36 40 40 36 34 40 42 41 41 40 39 37 35 37 37 38 39 38 38 41 42 42 41
48 47 49 50 48 48 44 45 45 44 41 47 45 45 46 46 49 43 41 40 42 34 42 36 32 37 44 42 40 41 39 40 40 43 41 41 41 41 39 39 39 39 42 43
49 48 47 48 46 38 42 37 40 41 45 48 47 46 46 45 43 39 39 38 36 39 35 32 34 42 45 44 42 40 39 41 43 44 43 43 42 42 40 39 40 40 40 41
47 48 38 44 42 44 45 46 46 48 48 46 46 44 43 44 40 40 35 37 41 34 31 33 39 40 43 43 41 41 39 39 42 43 44 43 42 40 40 40 40 41 41 42
48 48 38 42 44 49 50 49 49 50 49 47 45 44 42 39 37 38 34 33 31 32 30 36 40 40 42 41 36 40 40 39 41 39 40 39 39 37 39 39 39 41 44 42
49 47 42 42 46 47 48 48 47 46 45 46 43 38 37 36 36 34 32 31 28 33 38 41 41 41 42 38 37 39 40 39 39 39 39 40 38 35 35 39 39 42 43 41
47 44 44 45 49 49 50 47 47 47 40 36 38 36 35 39 35 32 35 33 36 39 41 43 42 41 46 47 41 38 40 40 40 39 40 41 39 36 33 37 39 41 42 41

GFSNW_sfc_dewp_063.txt.gz
Dewpoint
54 55 54 53 52 51 47 44 30 37 35 29 30 26 27 31 28 28 28 28 27 26 26 26 26 28 29 31 27 26 25 19 16 16 20 20 20 19 17 17 18 20 23 25
55 55 54 53 52 51 44 42 42 38 33 27 28 28 27 29 29 28 27 26 27 27 25 25 27 29 28 33 32 34 27 20 14 11 14 21 20 21 22 17 12 12 10 16
55 55 54 53 52 51 46 37 30 33 32 32 28 28 29 28 31 31 31 30 28 26 25 27 26 26 28 30 33 42 28 21 19 16 19 21 20 21 21 19 17 16 12 16
55 55 54 53 52 51 43 36 32 35 30 30 30 30 30 30 30 31 32 32 30 27 28 28 28 28 28 28 33 32 25 24 27 23 22 23 22 24 23 20 21 19 17 18
55 55 54 54 52 50 43 37 35 34 32 30 30 32 30 31 31 30 31 32 31 31 30 30 28 29 29 27 28 26 30 27 28 25 28 26 23 24 23 23 21 21 21 22
55 55 55 54 52 49 43 44 42 33 34 32 31 31 32 32 32 33 34 34 32 32 33 34 33 32 30 30 28 26 28 28 26 22 28 24 20 24 25 25 25 23 22 26
54 55 55 54 53 50 46 45 43 35 32 32 32 34 35 34 33 32 33 35 34 35 35 35 34 32 31 31 32 27 28 28 27 24 25 16 22 33 31 26 35 37 36 37
53 55 55 55 53 52 48 47 44 39 33 34 34 34 34 33 34 34 35 35 36 36 35 30 29 28 26 30 32 32 30 29 26 23 20 24 27 33 31 32 33 37 37 37
53 54 55 55 54 52 49 48 47 44 36 32 37 35 35 33 32 34 36 37 36 36 34 30 25 22 28 27 28 30 32 32 28 28 22 21 30 32 33 35 30 35 36 36
53 53 54 55 55 53 48 48 48 46 41 40 35 34 35 36 35 34 35 37 36 35 29 24 21 26 33 20 25 25 25 26 23 29 30 31 33 34 35 28 29 36 36 35
53 53 53 54 54 54 48 48 49 44 41 43 39 38 38 39 36 34 35 34 34 33 27 24 30 29 31 28 31 25 27 25 18 28 25 20 35 34 28 33 37 36 35 35
52 53 53 54 55 54 50 46 48 49 45 41 45 44 43 40 39 37 37 32 34 35 31 30 32 31 33 29 17 36 29 27 24 27 26 33 36 35 38 39 36 35 35 35
51 52 53 53 54 54 50 45 46 47 44 44 43 42 44 40 39 41 37 39 38 37 37 33 31 23 31 29 30 32 34 35 28 29 29 33 34 37 39 40 39 39 39 39
50 50 52 53 54 54 52 46 46 47 44 39 41 45 43 41 39 40 40 40 42 41 39 35 32 28 33 26 29 27 31 36 34 33 33 34 36 38 39 39 41 40 39 40
49 50 51 53 54 53 50 47 47 49 46 40 41 45 45 45 39 38 42 43 42 40 38 38 35 36 34 32 34 34 36 33 31 28 32 32 32 37 40 40 41 40 40 40
49 50 50 52 53 52 48 47 50 50 51 44 40 43 43 43 41 38 43 43 43 43 41 38 41 39 35 34 31 34 35 36 35 34 35 37 38 40 42 41 42 42 41 41
50 50 50 51 52 47 45 45 48 50 49 46 40 40 44 47 44 43 41 44 46 43 42 39 41 38 37 36 27 34 36 37 38 39 37 37 39 39 40 41 42 44 42 41
50 50 50 51 52 50 45 47 49 49 47 48 40 39 42 45 42 43 47 44 47 46 45 43 39 40 38 34 34 35 37 38 39 40 40 40 40 40 40 41 43 42 40 40
50 50 51 48 46 44 47 53 52 50 47 40 40 36 37 46 45 45 44 48 43 47 43 43 42 37 34 35 34 36 38 38 37 38 39 39 39 39 39 40 41 41 39 40
50 49 46 45 48 53 52 47 44 44 43 43 40 42 39 43 42 41 44 45 42 40 42 45 38 35 38 36 33 38 38 39 37 35 34 35 35 35 37 37 40 41 40 41
46 46 46 49 53 48 46 43 44 45 43 42 43 43 41 45 40 41 44 41 42 34 36 38 34 33 41 42 41 41 40 39 37 36 36 35 35 37 38 39 40 41 41 42
48 47 47 48 46 46 45 44 44 43 41 44 43 43 43 44 47 43 42 40 41 34 38 35 26 33 39 42 42 40 41 40 40 40 40 40 40 40 40 40 39 39 40 42
47 46 45 46 45 40 42 37 38 42 43 46 45 43 43 44 42 40 39 38 34 38 33 28 30 36 41 42 43 42 41 39 41 41 41 41 42 42 42 41 39 39 40 41
44 46 39 44 41 43 44 44 43 45 45 45 45 43 42 42 39 39 34 36 38 33 30 26 35 38 40 41 43 42 41 39 41 43 43 43 43 42 41 41 40 40 41 40
45 46 38 43 44 46 48 48 47 48 48 46 43 45 41 38 37 37 34 33 31 30 29 34 39 39 40 41 41 39 40 40 39 40 40 40 39 39 36 38 39 40 43 40
47 46 43 42 44 45 47 46 45 47 46 45 42 38 37 35 35 33 31 30 27 31 35 39 40 40 39 42 43 43 43 40 39 40 39 39 40 38 35 38 39 42 42 40
48 47 46 44 46 47 47 47 45 46 39 35 37 35 34 37 34 32 34 32 34 37 39 41 40 40 40 45 46 46 45 42 40 38 38 38 39 37 35 37 40 41 41 41

GFSNW_sfc_dewp_069.txt.gz
Dewpoint
55 55 55 54 52 51 47 37 31 36 35 30 30 27 28 33 29 30 27 27 26 26 27 28 28 28 29 30 33 24 25 19 19 19 21 22 22 22 21 22 27 24 26 23
55 55 54 53 52 50 47 37 35 36 33 27 28 30 29 30 29 30 29 27 27 29 28 28 28 28 28 30 36 30 26 20 18 18 19 21 22 22 20 16 20 24 21 18
55 55 54 53 52 50 42 35 30 33 34 32 29 28 30 29 31 31 31 31 29 28 29 30 28 27 27 28 34 40 28 24 21 12 20 22 22 22 21 20 19 20 21 23
55 55 54 53 52 50 43 37 33 34 30 31 32 31 31 29 30 31 32 31 31 28 28 29 29 29 27 27 34 32 30 26 26 25 24 23 23 21 20 19 22 20 22 23
55 55 55 53 52 49 44 38 33 34 33 33 32 33 31 30 32 31 30 31 32 32 31 30 29 30 30 29 29 28 30 29 28 26 26 25 21 23 22 21 19 20 21 27
55 55 55 54 52 48 44 44 40 36 35 33 31 33 32 31 33 34 35 33 34 34 34 34 34 33 32 32 30 29 31 30 26 22 27 23 18 25 24 25 32 27 21 35
54 55 55 54 53 50 47 46 40 37 33 33 33 33 33 33 34 33 35 36 34 36 35 34 33 32 32 33 33 29 30 35 34 24 24 17 27 32 31 31 35 36 36 37
54 54 55 55 53 51 49 50 43 39 37 35 34 33 33 35 37 36 36 35 37 37 34 32 31 30 30 30 31 32 32 32 33 29 23 24 27 29 29 29 32 35 35 35
53 54 54 55 54 52 50 50 48 41 38 34 36 34 34 33 34 35 37 38 37 34 32 35 29 30 30 29 27 30 32 34 35 32 24 21 29 29 32 34 25 35 35 34
52 53 54 54 55 53 51 50 50 46 42 37 37 35 35 36 35 35 37 38 35 33 32 34 34 32 32 31 27 28 31 35 33 31 30 29 33 31 35 29 29 35 35 34
51 52 54 54 54 54 51 50 51 47 44 41 40 38 39 38 37 37 37 36 34 32 34 34 34 34 33 32 32 31 30 33 34 32 30 28 35 32 31 34 36 35 35 35
50 52 53 54 54 54 49 47 49 50 47 42 45 43 42 41 40 38 38 35 37 34 35 35 35 34 33 33 32 34 32 35 35 34 34 34 37 34 36 35 34 35 36 34
50 50 52 53 54 54 50 48 49 49 47 43 44 43 45 46 43 40 37 38 38 39 37 33 36 34 36 34 34 34 35 35 37 34 34 34 37 38 38 38 37 37 36 34
49 49 50 52 53 54 51 49 49 49 46 41 38 44 44 45 42 41 40 41 41 39 38 37 36 36 36 36 35 36 37 37 37 36 36 35 36 38 39 39 39 39 39 39
49 49 49 50 52 53 51 51 50 50 47 43 43 45 45 45 43 41 42 41 40 43 41 37 38 34 35 36 37 38 37 37 38 39 38 38 35 39 40 40 39 41 41 41
50 49 49 49 51 51 50 49 50 51 51 46 40 44 45 46 41 42 42 42 42 42 44 43 41 39 42 37 36 39 39 40 40 36 39 38 39 40 41 40 41 41 42 43
50 50 49 49 50 52 46 47 49 50 51 46 41 39 44 47 42 42 42 45 47 48 46 44 45 43 42 39 36 38 38 38 40 39 39 38 39 39 41 42 42 43 43 43
49 49 49 50 51 50 47 48 50 51 48 47 41 39 43 47 46 47 50 46 48 47 46 46 43 42 40 34 39 43 41 39 39 39 40 39 41 42 42 42 43 43 42 42
49 48 50 50 49 48 48 53 52 51 49 45 44 41 39 47 48 49 50 50 45 49 45 44 43 39 34 40 42 42 41 39 39 39 39 39 40 41 42 42 42 41 41 42
49 49 49 48 50 53 52 48 46 48 47 49 43 45 44 46 46 46 46 48 44 41 43 43 40 39 43 44 44 45 45 40 40 38 38 39 40 40 41 41 42 42 42 43
49 49 50 51 52 50 49 46 44 46 43 46 45 45 44 48 46 45 47 43 44 39 40 38 36 36 43 44 45 45 45 41 42 40 39 40 40 39 39 39 40 42 43 43
49 49 49 50 49 47 45 45 46 44 43 46 46 45 46 48 49 46 45 42 42 34 42 38 33 41 41 42 44 45 45 43 42 43 43 42 41 40 41 42 41 41 43 44
49 48 46 46 46 40 41 40 42 43 47 48 48 47 48 48 47 44 43 38 37 42 38 34 38 43 42 43 43 43 44 45 44 44 44 44 43 43 43 43 44 44 43 43
42 45 38 43 42 44 44 45 46 46 48 48 49 47 48 45 43 42 38 40 41 33 33 35 40 44 44 44 44 44 43 44 44 44 44 44 44 44 45 45 44 44 43 43
41 46 38 44 46 47 49 49 49 50 50 49 48 46 45 42 40 39 37 36 34 36 36 39 43 44 45 45 44 44 43 44 44 44 43 44 44 44 45 45 43 43 45 43
44 44 44 46 45 46 48 50 50 50 50 48 46 43 39 38 37 36 35 32 32 34 41 44 45 45 46 46 45 45 45 45 44 44 44 44 44 44 43 43 42 43 45 43
44 44 46 41 44 45 46 50 51 52 47 44 41 39 36 38 36 35 35 36 38 41 43 45 46 46 46 46 47 46 44 44 44 44 45 44 45 44 43 43 43 43 44 42

GFSNW_sfc_dewp_072.txt.gz
Dewpoint
55 55 55 54 52 51 48 34 31 34 35 31 30 27 28 32 27 29 27 27 27 27 27 26 26 26 28 31 31 23 23 17 18 20 21 22 23 25 25 21 27 24 23 25
55 55 54 53 52 51 46 34 31 34 33 27 28 29 27 28 27 29 28 27 28 29 29 28 27 27 28 30 31 29 26 21 19 19 19 22 22 23 24 23 24 28 19 25
55 55 54 53 52 51 45 33 27 29 32 33 29 27 27 27 28 28 29 29 29 29 29 30 29 27 27 28 31 38 31 22 24 15 20 21 23 21 22 22 20 25 24 30
55 55 54 53 52 51 44 33 28 33 25 27 27 27 27 25 26 28 29 28 27 28 29 29 29 28 27 28 32 31 30 27 26 24 21 21 20 18 18 22 25 24 27 29
55 55 55 54 52 51 41 32 31 30 30 33 28 30 29 27 29 29 28 29 28 29 31 31 30 29 31 30 29 30 28 29 28 25 24 23 20 21 20 18 20 24 25 31
55 55 55 54 52 49 36 42 37 34 33 28 27 29 28 28 32 33 32 31 32 31 32 32 32 31 31 31 31 29 30 28 28 22 24 20 17 20 19 21 24 24 23 34
54 55 55 55 53 51 46 45 40 35 27 27 29 30 30 31 33 33 33 33 34 35 35 34 30 28 30 30 30 27 29 32 29 22 23 17 28 29 27 25 31 32 35 36
54 54 55 55 54 52 49 50 43 37 31 29 30 30 31 33 35 34 34 35 36 37 34 31 30 28 30 29 29 29 31 30 27 26 20 22 24 28 26 30 31 34 33 34
53 54 54 55 54 52 50 49 51 40 36 29 31 31 33 30 30 33 35 39 36 35 32 35 31 34 32 28 29 31 28 34 33 27 27 20 28 29 31 30 25 35 34 34
52 53 54 54 55 54 51 50 54 46 39 35 36 34 34 33 33 32 34 36 35 34 32 38 39 38 35 35 28 30 32 34 35 28 31 29 31 30 33 25 31 36 34 35
50 52 53 54 54 54 50 49 54 48 39 39 38 37 38 37 36 34 38 34 32 28 32 36 40 40 38 37 35 31 31 36 37 34 32 32 34 33 32 37 36 34 35 35
50 51 52 54 54 54 52 47 52 52 46 43 45 41 41 41 40 37 38 33 32 32 34 37 37 40 35 36 37 33 36 37 42 36 38 37 38 35 37 34 35 35 35 33
49 50 51 53 54 54 52 49 50 49 44 42 41 41 43 43 42 41 37 37 37 38 39 32 33 36 35 38 37 36 34 36 40 37 30 35 38 36 37 36 35 36 34 34
49 49 50 51 53 53 52 50 50 49 45 35 38 45 45 45 43 44 40 41 41 41 38 36 36 37 35 37 37 39 36 37 37 38 36 35 36 37 38 38 38 37 36 36
49 49 49 50 52 53 51 52 52 52 47 37 37 42 43 44 45 44 43 40 41 40 37 37 37 37 36 36 35 41 36 37 41 42 37 39 34 39 40 39 39 39 38 38
50 49 48 49 50 52 49 48 51 53 51 45 36 42 45 45 44 44 45 42 40 40 40 41 44 40 39 41 39 39 37 39 39 36 37 37 37 39 40 39 40 40 39 40
50 49 48 49 50 50 46 47 50 51 52 44 36 37 45 46 44 42 42 43 43 41 44 44 46 44 44 40 38 39 41 40 41 41 39 39 38 37 39 40 41 41 40 40
49 48 48 50 51 50 48 49 50 51 48 45 40 37 41 47 44 44 46 43 44 44 43 46 45 44 42 37 41 42 43 42 41 41 39 36 38 38 40 41 42 41 41 39
48 48 49 51 49 48 49 53 53 51 49 45 45 43 39 46 48 48 47 46 46 50 46 47 45 42 37 41 43 42 43 43 42 42 40 38 39 39 41 41 41 41 39 37
48 50 49 49 51 53 52 50 48 47 47 46 45 45 45 45 45 46 47 46 42 42 44 44 43 42 43 43 45 46 45 43 41 40 40 38 38 38 39 40 40 39 38 38
48 48 49 52 52 50 49 46 44 46 45 45 45 45 43 47 46 47 46 43 45 40 40 40 39 39 40 42 44 47 45 43 41 43 42 38 38 38 39 39 40 40 39 39
49 50 51 51 48 47 45 44 46 45 45 46 45 45 45 48 48 46 46 43 43 34 40 39 37 39 40 42 43 45 45 44 42 42 43 41 41 40 41 40 40 41 40 41
50 47 46 46 46 41 41 42 45 45 46 46 48 47 47 48 48 46 44 38 36 40 38 38 39 41 42 44 44 43 45 45 45 45 44 44 44 44 43 43 43 42 42 43
42 42 40 43 42 43 43 44 47 46 46 46 50 48 49 47 44 44 39 41 39 33 32 37 36 42 43 44 45 45 42 43 44 45 45 45 45 45 46 45 45 44 44 44
40 40 37 37 40 44 47 48 48 48 49 49 48 47 48 45 43 40 37 35 33 34 35 32 38 45 45 45 44 44 43 43 43 43 43 43 45 45 45 47 46 46 45 45
42 41 37 38 40 36 43 46 50 51 49 49 50 45 43 41 39 35 34 31 31 29 34 41 46 46 47 48 46 45 43 43 41 41 42 43 44 46 46 47 48 47 46 45
40 37 38 35 33 34 35 43 45 51 48 46 44 40 38 39 39 36 35 35 34 35 41 46 49 47 47 46 44 43 41 41 41 41 42 41 41 41 43 46 46 47 47 48

GFSNW_sfc_dewp_075.txt.gz
Dewpoint
55 55 55 54 53 51 46 33 29 32 30 29 27 26 26 31 25 27 26 26 24 25 26 23 26 24 27 28 26 17 20 20 22 21 23 23 24 23 26 23 28 22 22 29
55 55 55 53 52 51 45 31 25 29 30 27 24 26 22 25 25 27 25 25 27 26 24 26 22 24 26 29 27 27 25 18 20 21 21 24 23 24 24 22 22 28 20 33
55 55 55 53 52 52 46 28 24 25 28 29 26 24 23 21 25 26 28 28 28 28 27 26 24 23 25 27 28 39 38 20 26 19 21 21 23 21 23 23 22 24 25 38
55 55 55 53 52 51 47 28 24 30 24 22 24 24 23 21 21 23 26 27 27 28 27 27 26 25 26 26 35 32 28 24 25 22 19 20 21 21 20 22 23 22 34 38
55 55 55 54 52 51 37 32 30 25 27 28 24 28 25 23 26 28 25 25 22 27 31 32 28 27 28 27 28 29 26 27 26 23 22 20 18 18 19 19 22 24 32 37
55 55 55 54 52 50 35 37 35 30 32 25 23 24 24 25 29 29 29 30 29 27 30 31 31 31 32 32 33 29 31 25 27 23 22 21 19 19 19 18 20 25 29 37
54 55 55 55 53 52 45 41 39 31 21 23 24 24 26 28 31 31 30 32 33 32 32 30 26 23 26 27 28 27 32 33 29 22 26 22 23 28 20 19 25 34 37 37
53 54 55 55 54 53 47 46 42 35 29 25 27 26 28 31 34 32 32 31 34 35 33 30 30 27 28 26 26 24 26 31 29 26 24 23 25 27 25 28 30 32 35 35
52 54 55 55 55 53 50 47 51 40 35 27 28 29 31 28 29 32 32 34 35 34 31 33 33 33 32 28 27 27 24 33 31 28 26 21 28 27 29 27 28 33 34 33
51 53 54 55 55 54 50 47 54 45 35 31 34 33 33 30 30 30 33 34 32 33 31 36 39 39 35 36 28 30 30 31 32 29 30 28 32 30 29 25 31 35 32 33
51 52 53 54 54 55 51 48 53 49 37 36 34 34 37 35 34 32 36 31 30 27 31 35 42 40 40 38 38 33 32 36 38 32 32 34 33 31 30 39 39 36 35 35
50 51 52 53 54 55 53 46 51 51 45 42 40 37 39 39 39 36 34 35 30 31 33 34 37 41 34 36 38 33 37 35 42 36 38 41 38 36 41 38 39 35 35 33
49 50 51 52 53 54 53 47 50 47 42 39 37 36 40 39 38 39 37 36 37 34 38 31 32 34 33 37 36 35 33 34 40 35 34 35 37 36 35 34 34 35 33 32
49 49 50 51 52 53 53 48 49 48 42 35 38 41 42 42 39 41 40 40 40 40 37 34 34 37 36 34 35 38 35 36 36 36 35 35 36 37 37 36 35 35 35 35
49 49 49 50 51 52 52 50 51 51 48 38 35 39 40 41 42 41 42 40 43 39 37 35 36 38 38 37 36 40 36 37 42 42 38 39 38 38 38 38 37 37 37 37
50 50 49 49 50 51 49 47 48 52 50 44 35 42 41 43 43 43 43 42 41 41 41 40 46 42 40 40 41 40 39 40 41 38 39 38 38 38 39 39 38 38 38 39
51 50 49 49 50 50 47 48 51 51 51 44 35 35 42 44 43 41 42 43 42 42 42 41 42 46 42 42 40 39 38 40 43 41 40 38 37 36 37 38 39 41 40 39
50 49 49 49 51 50 47 49 50 51 49 43 39 37 40 44 41 43 42 41 43 44 43 47 47 44 44 41 41 41 41 43 42 43 40 38 38 37 39 39 40 40 39 38
50 49 49 51 49 47 50 53 52 51 50 46 43 41 45 45 42 45 44 44 46 49 47 47 45 45 41 42 41 41 43 44 43 42 43 39 37 38 38 40 40 39 38 38
49 49 48 46 51 53 52 51 48 48 47 45 44 44 46 42 43 47 49 48 42 44 45 44 45 45 45 44 42 44 45 45 44 42 44 42 39 37 38 38 39 39 38 39
47 45 46 52 52 49 48 46 44 45 44 43 43 43 45 46 46 49 47 44 43 42 42 41 44 40 40 38 42 45 45 46 42 41 41 41 40 38 37 37 38 40 41 40
49 51 51 51 47 45 45 44 45 45 44 44 42 45 44 47 48 47 45 42 42 34 38 39 39 40 42 41 40 41 43 43 42 41 41 42 42 39 41 40 38 39 40 44
51 47 44 44 45 43 41 41 43 43 45 45 47 48 48 48 46 48 46 38 36 38 37 42 40 42 40 41 40 39 41 44 44 44 45 46 45 46 45 44 44 41 43 43
43 41 42 41 41 42 40 43 49 45 44 46 51 53 49 47 46 47 39 41 39 34 34 37 33 45 42 43 42 42 41 40 41 42 42 44 45 45 47 47 45 45 44 45
41 37 37 35 35 37 45 47 46 46 45 48 53 52 51 49 45 44 40 34 32 32 34 35 48 48 46 44 42 42 41 41 40 40 42 42 41 41 43 45 47 48 47 48
42 40 36 32 32 30 34 41 41 43 45 51 54 47 45 43 42 38 36 34 32 29 34 38 44 47 46 46 45 42 41 40 38 37 37 38 38 39 41 42 45 46 48 48
39 35 34 32 32 29 27 31 36 48 50 50 49 42 41 42 40 38 40 37 34 37 37 44 48 47 47 44 41 40 39 39 38 39 40 41 40 41 40 40 42 44 47 48